China Lake, CA

12:29 AM PST on December 17, 2017 (GMT -0800)
China Lake NAWS

Weather History for KNID - November, 2011

Change the Weather History Date:

Saturday, November 19, 2011

  Actual Average Record
Temperature  
Mean Temperature 52 °F -  
Max Temperature 59 °F 63 °F 79 °F (1996)
Min Temperature 45 °F 37 °F 28 °F (2016)
Degree Days  
Heating Degree Days 13    
Growing Degree Days 2 (Base 50)    
Moisture  
Dew Point 28 °F    
Average Humidity 42    
Maximum Humidity 68    
Minimum Humidity 29    
Precipitation  
Precipitation 0.00 in - - ()
Sea Level Pressure  
Sea Level Pressure 29.75 in    
Wind  
Wind Speed 13 mph (SSW)    
Max Wind Speed 23 mph    
Max Gust Speed 37 mph    
Visibility 10 miles    
Events      
Averages and records for this station are not official NWS values.
T = Trace of Precipitation, MM = Missing Value Source: NWS Daily Summary

Daily Weather History Graph

Daily Weather History Graph

Search for Another Location

Airport or City:

Trip Planner

Search our weather history database for the weather conditions in past years. The results will help you decide how hot, cold, wet, or windy it might be!

Date:

Astronomy

Nov. 19, 2011 Rise Set
Actual Time 6:30 AM PST 4:41 PM PST
Civil Twilight 6:03 AM PST 5:08 PM PST
Nautical Twilight 5:32 AM PST 5:39 PM PST
Astronomical Twilight 5:01 AM PST 6:10 PM PST
Moon 12:08 AM PST (11/19) 12:50 PM PST (11/19)
Length of Visible Light 11h 05m
Length of Day
10h 11m
Last Quarter, 37% of the Moon is Illuminated
Nov 19
Last Quarter
Nov 24
New
Dec 2
First Quarter
Dec 10
Full
Dec 17
Last Quarter

Hourly Weather History & Observations

Time (PST) Temp. Windchill Dew Point Humidity Pressure Visibility Wind Dir Wind Speed Gust Speed Precip Events Conditions
12:56 AM 52.0 °F - 30.0 °F 43% 29.63 in 10.0 mi SW 23.0 mph 36.8 mph N/A   Clear
1:56 AM 52.0 °F - 30.0 °F 43% 29.63 in 10.0 mi SW 23.0 mph 36.8 mph N/A   Clear
2:56 AM 50.0 °F - 28.9 °F 44% 29.66 in 10.0 mi SSW 5.8 mph - N/A   Clear
3:56 AM 50.0 °F - 28.0 °F 43% 29.67 in 10.0 mi South 17.3 mph - N/A   Clear
4:56 AM 48.0 °F - 27.0 °F 44% 29.70 in 10.0 mi South 8.1 mph - N/A   Clear
5:56 AM 45.0 °F 42.6 °F 27.0 °F 49% 29.71 in 10.0 mi WSW 4.6 mph - N/A   Clear
6:56 AM 46.9 °F - 28.0 °F 48% 29.74 in 10.0 mi SSW 6.9 mph - N/A   Clear
7:56 AM 46.0 °F 42.5 °F 28.0 °F 50% 29.77 in 10.0 mi WSW 6.9 mph - N/A   Clear
8:56 AM 50.0 °F - 28.0 °F 43% 29.80 in 10.0 mi SSW 3.5 mph - N/A   Clear
9:56 AM 53.1 °F - 28.0 °F 38% 29.82 in 10.0 mi SSE 5.8 mph - N/A   Clear
10:56 AM 55.9 °F - 28.0 °F 34% 29.81 in 10.0 mi Calm Calm - N/A   Clear
11:56 AM 57.0 °F - 27.0 °F 32% 29.78 in 10.0 mi Calm Calm - N/A   Clear
12:56 PM 59.0 °F - 27.0 °F 29% 29.76 in 10.0 mi SSW 8.1 mph - N/A   Clear
1:56 PM 59.0 °F - 27.0 °F 29% 29.75 in 10.0 mi SSW 15.0 mph 21.9 mph N/A   Clear
2:56 PM 57.9 °F - 27.0 °F 31% 29.76 in 10.0 mi SSW 16.1 mph 20.7 mph N/A   Clear
3:56 PM 57.0 °F - 26.1 °F 30% 29.75 in 10.0 mi SSW 16.1 mph 24.2 mph N/A   Clear
4:56 PM 52.0 °F - 28.0 °F 40% 29.75 in 10.0 mi SW 4.6 mph - N/A   Clear
5:56 PM 50.0 °F - 26.1 °F 39% 29.77 in 10.0 mi South 13.8 mph 21.9 mph N/A   Clear
6:56 PM 48.9 °F - 26.1 °F 41% 29.79 in 10.0 mi South 11.5 mph 19.6 mph N/A   Clear
7:56 PM 48.0 °F - 26.1 °F 42% 29.80 in 10.0 mi SSW 15.0 mph 20.7 mph N/A   Clear
8:56 PM 48.9 °F - 26.1 °F 41% 29.79 in 10.0 mi South 18.4 mph 31.1 mph N/A   Clear
9:56 PM 48.9 °F - 30.9 °F 50% 29.81 in 10.0 mi South 18.4 mph 25.3 mph N/A   Clear
10:56 PM 46.9 °F - 34.0 °F 61% 29.78 in 10.0 mi South 23.0 mph 32.2 mph N/A   Clear
11:56 PM 46.0 °F 39.0 °F 36.0 °F 68% 29.79 in 10.0 mi South 17.3 mph 25.3 mph N/A   Clear